Regional Weather Roundup
Issued by NWS Goodland, KS

Home | Current Version | Previous Version | Text Only | Print | Product List | Glossary Off
Versions: 1 2 3 4 5 6 7 8 9 10 11 12 13 14 15 16 17 18 19 20 21 22 23 24 25 26 27 28 29 30 31 32 33 34 35 36 37 38 39 40 41 42 43 44 45 46 47 48 49 50

000
ASUS43 KGLD 270859
RWRGLD

GOODLAND FORECAST AREA HOURLY WEATHER ROUNDUP
NATIONAL WEATHER SERVICE GOODLAND KS
200 AM MST TUE JAN 27 2015

...OFFICIAL OBSERVATIONS...

CITY           SKY/WX    TMP DP  RH WIND       PRES   REMARKS
GOODLAND KS    CLEAR     45  30  55 W14       30.12S
HILL CITY KS   CLEAR     37  28  70 W5        30.10R
IMPERIAL NEB   PTCLDY    36  27  69 W7        30.09S
MCCOOK NEB     CLEAR     34  29  82 W6        30.08S
AKRON CO       CLEAR     39  29  67 W16       30.14F
BURLINGTON CO  CLEAR     39  29  67 W12       30.15S
LIMON CO       PTCLDY    30  24  78 N9        30.21F
$$

...UNOFFICIAL OBSERVATIONS...

CITY           SKY/WX    TMP DP  RH WIND       PRES   REMARKS
COLBY KS       CLEAR     34  32  93 W8        30.11S
NORTON KS      CLEAR     34  27  75 SW9       30.08R
$$



USA.gov is the U.S. government's official web portal to all federal, state and local government web resources and services.